Lid_Strength_Index
4 4 4 5 5 5 6 12 12 8 9 14 15 14 12 9 11 11 12 12 12 13 13 14 14 13 11 9 9 10 9 11 14 13 10 8 10 12 12 17 16 16 15 15
5 4 4 4 4 5 7 12 12 8 9 15 15 13 11 11 12 12 12 12 11 12 14 15 13 12 10 10 9 10 10 12 17 15 12 11 12 11 11 12 12 15 16 14
4 4 3 3 4 4 7 10 11 10 10 12 12 12 10 10 8 10 10 11 12 13 14 14 14 13 9 9 10 5 6 11 12 15 14 11 13 11 10 12 15 14 13 12
3 3 3 3 3 4 7 9 11 11 13 12 12 12 10 10 10 8 9 12 12 13 15 15 14 12 11 9 7 10 9 12 11 10 10 10 11 11 11 12 12 13 12 12
3 3 3 3 4 4 8 11 10 9 11 12 12 12 12 10 9 9 10 11 10 11 14 13 13 13 12 12 11 13 13 12 13 13 10 10 11 10 10 10 10 11 11 11
3 3 3 3 4 5 9 8 8 9 10 12 13 12 11 10 9 8 8 8 9 12 11 11 11 11 10 11 12 13 14 14 12 14 12 11 14 11 10 10 9 10 12 9
4 4 2 2 3 4 6 8 8 10 11 11 11 10 10 10 10 10 8 8 10 7 7 9 9 11 10 11 12 12 13 15 15 14 13 17 12 11 8 9 9 9 9 8
4 4 3 2 2 3 5 7 9 10 11 10 9 9 10 10 10 9 8 8 7 8 9 11 12 12 12 12 11 13 12 14 15 16 16 13 12 9 9 11 11 8 10 9
4 3 3 2 2 3 5 8 7 8 9 11 7 9 9 12 13 11 9 7 8 9 11 11 15 14 13 14 13 13 12 13 13 15 16 16 13 9 8 8 13 8 9 9
3 3 2 2 2 3 4 7 7 9 8 8 9 10 10 9 11 12 10 9 9 9 12 13 14 13 11 13 14 14 13 14 15 15 16 14 11 8 7 13 12 8 8 8
3 3 2 2 2 2 3 6 6 7 8 8 6 7 8 9 9 11 10 10 10 10 12 13 13 13 12 13 12 13 13 15 15 16 17 16 8 8 10 10 9 7 7 8
3 3 2 2 2 2 3 6 6 5 8 9 6 6 5 6 6 9 10 11 11 11 12 11 11 12 11 12 14 12 13 12 13 13 13 11 8 8 7 7 7 7 7 7
3 3 2 2 2 2 3 5 5 6 8 8 9 8 6 5 5 5 11 11 9 11 9 11 11 12 10 13 12 12 11 10 11 11 10 9 8 8 6 6 6 6 6 6
2 2 2 2 2 2 3 5 5 6 7 11 10 5 7 5 5 6 6 7 9 10 11 12 12 12 9 11 11 12 11 11 12 12 11 8 7 7 6 6 5 5 5 5
3 3 3 3 3 3 3 4 5 5 8 10 10 7 6 6 6 6 7 8 10 9 12 12 12 11 11 11 11 12 12 12 13 13 11 9 8 7 5 6 6 5 5 5
3 3 3 3 3 3 5 8 5 5 6 9 11 7 6 6 6 6 7 8 11 10 11 12 11 10 11 12 12 10 10 10 10 9 9 8 7 5 5 6 5 5 5 4
3 3 3 3 3 4 7 8 5 5 5 8 10 9 6 4 6 7 8 8 10 10 9 12 12 12 11 13 13 10 9 9 9 8 8 8 7 7 5 5 4 5 4 4
3 3 3 3 3 4 7 5 4 5 7 6 10 10 8 4 7 8 7 9 10 10 10 10 12 12 12 12 10 9 9 8 8 8 8 8 8 7 5 5 5 6 6 6
3 3 3 5 6 7 5 3 3 5 6 9 9 11 12 5 7 7 7 8 10 9 11 10 11 13 14 11 9 8 8 8 8 8 6 5 6 6 5 5 5 6 7 7
3 6 7 6 5 4 4 5 6 7 7 8 10 8 10 7 8 9 8 8 9 11 9 9 10 11 9 8 8 7 7 7 7 6 7 7 7 6 6 6 5 5 6 6
8 10 8 7 5 5 6 8 9 8 10 7 8 8 9 5 10 10 8 10 10 12 10 10 11 12 9 6 6 6 6 6 6 5 5 6 5 6 6 6 5 5 5 6
8 7 5 5 7 7 9 10 9 10 11 8 9 8 7 7 6 9 9 11 10 14 9 11 14 10 8 7 6 6 5 5 5 4 5 5 5 5 5 6 6 5 5 5
5 6 7 8 8 12 12 13 12 11 9 8 8 9 8 7 7 9 10 12 13 8 12 13 12 9 7 7 6 5 5 4 4 5 4 4 5 5 5 6 6 5 4 4
7 8 12 10 11 10 10 10 10 8 7 7 8 9 9 8 10 9 12 10 10 13 14 14 10 8 7 6 6 5 5 5 5 5 5 5 5 5 5 5 5 5 5 5
8 8 12 10 8 7 7 6 7 6 6 7 8 8 8 10 10 10 10 12 13 13 13 11 9 7 6 6 6 6 6 6 6 6 5 5 5 5 5 5 5 5 5 5
7 8 9 8 9 9 8 7 8 5 6 6 7 10 11 11 11 12 12 13 14 12 10 8 7 7 6 6 5 5 6 6 6 5 5 5 5 5 5 5 4 5 4 5
8 9 7 9 9 9 7 6 7 5 7 10 9 12 12 10 12 13 11 13 11 9 8 7 6 6 6 5 5 6 6 6 6 5 5 5 5 5 6 6 6 5 5 5